Regional Weather Roundup
Issued by NWS New Orleans/Baton Rouge, LA

Home | Current Version | Previous Version | Text Only | Print | Product List | Glossary Off
Versions: 1 2 3 4 5 6 7 8 9 10 11 12 13 14 15 16 17 18 19 20 21 22 23 24 25 26 27 28 29 30 31 32 33 34 35 36 37 38 39 40 41 42 43 44 45 46 47 48 49 50

298
ASUS44 KLIX 180901
RWRLIX
NEW ORLEANS REGIONAL WEATHER ROUNDUP
NATIONAL WEATHER SERVICE NEW ORLEANS LA
400 AM CDT FRI APR 18 2014

NOTE: "FAIR" INDICATES FEW OR NO CLOUDS BELOW 12,000 FEET WITH NO
      SIGNIFICANT WEATHER AND/OR OBSTRUCTIONS TO VISIBILITY.
      SKY/WX - SKY CONDITION AND SIGNIFICANT WEATHER.
      TMP - AIR TEMPERATURE.     DP    - DEWPOINT TEMPERATURE.
      RH  - RELATIVE HUMIDITY.   PRES  - PRESSURE.
      HI  - HEAT INDEX.          WCI   - WIND CHILL INDEX.

*  THESE STATIONS ARE NOT NWS OR FAA STATIONS AND ARE NOT UNDER
   NWS QUALITY CONTROL.

LAZ038-040-048-061>063-065>067-069-181000-
SOUTHEAST LOUISIANA

CITY           SKY/WX    TMP DP  RH WIND       PRES   REMARKS
N.O. AUDUBON   NOT AVBL
N.O. INTL ARPT CLOUDY    63  60  90 NE8       30.06R
N.O. LAKEFRONT CLOUDY    62  60  93 E15       30.05F
N.O. DOWNTOWN* CLOUDY    63  55  77 NE9       30.05F
SLIDELL        LGT RAIN  61  58  90 NE7       30.05F
BATON ROUGE    CLOUDY    62  55  77 N5        30.09F
BOOTHVILLE     CLOUDY    63  61  93 NE9       30.02S
BELLE CHASSE   CLOUDY    63  58  83 NE13G21   30.04S
BOGALUSA*      DRIZZLE   63  58  83 NE6       30.09F
GALLIANO*      NOT AVBL
NEW ROADS*     NOT AVBL
GONZALES*      CLOUDY    62  59  91 N6        30.08S
HAMMOND*       NOT AVBL
HOUMA*         NOT AVBL
PORT FOURCHON* CLOUDY    64  61  88 NE13      30.04S

$$

MSZ070-080>082-181000-
SOUTHERN MISSISSIPPI

CITY           SKY/WX    TMP DP  RH WIND       PRES   REMARKS
MCCOMB         PTCLDY    59  54  83 NE5       30.10F
GULFPORT       CLOUDY    63  58  83 NE9       30.04S
BILOXI         DRIZZLE   61  60  98 NE12      30.04F
PASCAGOULA     LGT RAIN  60  59  96 NE9       30.04F

$$

COASTAL OBSERVATIONS
LAKE AND NEARSHORE STATIONS

STATION/POSITION TIME  TEMP    WIND        PRES    WAVE
                       AIR SEA DIR/SP/G            HT/PER
                 (UTC) (F)     (DEG/KT/KT) (MB)    (FT/S)
PASCAGOULA       0800   61      40/ 13/ 17 1016.4
WAVELAND YACHT   0800   61 66   50/ 11/ 14 1016.7
GRAND ISLE       0800   64 66   60/ 11/ 17 1016.7
SOUTHWEST PASS   0800   65 58   30/ 14/ 15 1015.7
NEW CANAL        0800   63 63   70/ 12/ 14 1017.9
SHELL BEACH      0800   62 61   60/ 18/ 22 1016.6

OFFSHORE STATIONS

STATION/POSITION TIME  TEMP    WIND        PRES    WAVE
                       AIR SEA DIR/SP/G            HT/PER
                 (UTC) (F)     (DEG/KT/KT) (MB)    (FT/S)
64 S DAUPHIN ISL 0836   66 71   50/ 23/ 27 1014.4

$$




USA.gov is the U.S. government's official web portal to all federal, state and local government web resources and services.